Regional Weather Roundup
Issued by NWS Boston, MA

Home | Current Version | Previous Version | Text Only | Print | Product List | Glossary On
Versions: 1 2 3 4 5 6 7 8 9 10 11 12 13 14 15 16 17 18 19 20 21 22 23 24 25 26 27 28 29 30 31 32 33 34 35 36 37 38 39 40 41 42 43 44 45 46 47 48 49 50
000
ASUS41 KBOX 301510
RWRBOX

REGIONAL WEATHER ROUNDUP
NATIONAL WEATHER SERVICE TAUNTON MA
1100 AM EDT WED JUL 30 2014

NOTE:  "FAIR" INDICATES FEW OR NO CLOUDS BELOW 12,000 FEET WITH NO
SIGNIFICANT WEATHER AND/OR OBSTRUCTIONS TO VISIBILITY.  THE FOLLOWING
OBSERVATION LOCATIONS DO NOT REPORT PRESENT WEATHER...PROVINCETOWN...
SMITHFIELD...BLOCK ISLAND...KEENE...AND OXFORD.

MAZALL-301600-
EASTERN MASSACHUSETTS

CITY           SKY/WX    TMP DP  RH WIND       PRES   REMARKS
BOSTON         MOSUNNY   77  53  43 W8        30.00S
BEVERLY        SUNNY     75  58  55 VRB6      30.00R
LAWRENCE       CLOUDY    71  57  61 SW5       30.02S
BEDFORD        MOSUNNY   73  57  57 W7        29.99F
BLUE HILL        N/A     72  53  51 W9        30.01S
NORWOOD        SUNNY     74  55  51 W10       30.00S
MARSHFIELD     SUNNY     75  54  46 CALM      30.01S
PLYMOUTH       MOSUNNY   75  54  47 SW9       30.01S
TAUNTON        SUNNY     76  54  46 W7        30.00S
NEW BEDFORD    MOSUNNY   75  57  53 S5        30.00S
$$

MAZALL-301600-
CAPE COD AND THE ISLANDS

CITY           SKY/WX    TMP DP  RH WIND       PRES   REMARKS
FALMOUTH       SUNNY     75  54  46 W9        30.01S
HYANNIS          N/A    N/A N/A N/A SW8       30.00S
CHATHAM        SUNNY     78  58  49 SW10      30.01S
PROVINCETOWN   SUNNY     75  55  50 SW7       30.01S
NANTUCKET      SUNNY     72  62  71 SW8       30.01S
MARTHAS VNYRD  MOSUNNY   74  60  61 S7        30.01S
$$

MAZALL-301600-
CENTRAL AND WESTERN MASSACHUSETTS

CITY           SKY/WX    TMP DP  RH WIND       PRES   REMARKS
WORCESTER      SUNNY     69  52  54 W7        30.03S
FITCHBURG      CLOUDY    70  55  59 CALM      30.03S
ORANGE         CLOUDY    71  56  58 VRB3      30.02S
SPRINGFIELD    MOSUNNY   69  57  66 VRB5      30.02S
WESTFIELD      MOSUNNY   71  57  61 CALM      30.02F
NORTH ADAMS    MOSUNNY   68  56  65 CALM      30.03F
PITTSFIELD     MOSUNNY   68  54  60 VRB6      30.04S
$$

RIZALL-301600-
RHODE ISLAND

CITY           SKY/WX    TMP DP  RH WIND       PRES   REMARKS
PROVIDENCE     MOSUNNY   75  51  43 W7        30.01S
NEWPORT        SUNNY     75  53  46 CALM      30.01S
BLOCK ISLAND   SUNNY     73  57  56 S6        30.03R
SMITHFIELD     SUNNY     73  54  49 SW6       30.02S
WESTERLY       SUNNY     76  51  41 SW7       30.02S
$$

CTZALL-301600-
CONNECTICUT

CITY           SKY/WX    TMP DP  RH WIND       PRES   REMARKS
BRADLEY INTL   MOSUNNY   73  55  53 VRB5      30.02S
HARTFORD       SUNNY     74  53  48 VRB3      30.02S
BRIDGEPORT     SUNNY     72  57  59 S7        30.03S
DANBURY        SUNNY     70  52  52 SE3       30.05S
GROTON         MOSUNNY   72  59  63 SW8       30.01R
NEW HAVEN      MOSUNNY   76  53  44 VRB5      30.03R
CHESTER        FAIR      73  54  49 NW6       30.03S
MERIDEN        SUNNY     74  54  49 SW3       30.02S
WILLIMANTIC    SUNNY     74  54  49 W5        30.02S
OXFORD         MOSUNNY   70  54  56 VRB5      30.06S
$$

MEZ002-015-021-024-NHZ003-005-008-011-012-014-VTZ005-008-301600-
NORTHERN NEW ENGLAND

CITY           SKY/WX    TMP DP  RH WIND       PRES   REMARKS
PORTLAND ME    CLOUDY    67  61  81 N6        30.01S
BANGOR ME      PTSUNNY   71  56  58 VRB3      30.04
CONCORD NH     CLOUDY    68  56  65 VRB3      30.02S
MANCHESTER NH  PTSUNNY   71  57  61 NW5       30.00S
NASHUA NH      MOSUNNY   69  57  65 CALM      30.02S
PORTSMOUTH NH  MOSUNNY   72  58  60 VRB3      29.99F
JAFFREY NH     CLOUDY    67  54  63 CALM      30.04S
KEENE NH       SUNNY     66  52  59 CALM      30.03F
BURLINGTON VT  MOSUNNY   69  55  60 SW5       30.02S
MT. WASHINGTON FOG       43  37  81 SW3         N/A  VSB 1/2
$$

NYZ052-076-301600-
EASTERN NEW YORK

CITY           SKY/WX    TMP DP  RH WIND       PRES   REMARKS
ALBANY         MOSUNNY   70  54  56 VRB3      30.04S
NEW YORK CITY  MOSUNNY   73  52  47 VRB3      30.03S
$$

ANZALL-301600-
MARINE OBSERVATIONS

STATION/POSITION TIME  TEMP    WIND        PRES    VSBY  WAVE
                       AIR SEA DIR/SP/G                  HT/PER
                 (UTC) (F)     (DEG/KT/KT) (MB)    (MI)  (FT/S)
BOSTON BUOY      NOT AVBL
BUZZARDS BAY     NOT AVBL
NANTUCKET SOUND  NOT AVBL
MASS BAY-STELLWA NOT AVBL
ISLE OF SHOALS   NOT AVBL
S OF BLOCK IS    NOT AVBL
$$

......................KEY.........................
  SKY/WX - SKY CONDITION/PRESENT WEATHER
  TMP    - TEMPERATURE IN FAHRENHEIT
  DWPT   - DEWPOINT IN FAHRENHEIT
  RH     - RELATIVE HUMIDITY IN PERCENT
  WIND   - DIRECTION AND SPEED IN MPH
  PRES   - MEAN SEA LEVEL PRESSURE IN INCHES OF HG
  WCI    - WIND CHILL INDEX
  VSB    - VISIBILITY IN MILES
  HX     - HEAT INDEX
  TC     - TEMPERATURE IN CELSIUS
  VRB    - VARIABLE WIND DIRECTION
  N/A    - NOT AVAILABLE


USA.gov is the U.S. government's official web portal to all federal, state and local government web resources and services.